Regional Weather Roundup
Issued by NWS

Home | Current Version | Previous Version | Graphics & Text | Print | Product List | Glossary On
Versions: 1 2 3 4 5 6 7 8 9 10 11 12 13 14 15 16 17 18 19 20 21 22 23 24 25 26 27 28 29 30 31 32 33 34 35 36 37 38 39 40 41 42 43 44 45 46 47 48 49 50
818
ASUS43 KLMK 081102
RWRKY
KENTUCKY REGIONAL WEATHER ROUNDUP
NATIONAL WEATHER SERVICE LOUISVILLE KY
600 AM EST MON FEB 08 2016

NOTE "FAIR" INDICATES FEW OR NO CLOUDS BELOW 12,000 FEET
WITH NO SIGNIFICANT WEATHER AND/OR OBSTRUCTIONS TO VISIBILITY.

KYZ001>023-026-027-061>063-070>075-081200-
WESTERN AND SOUTH CENTRAL KENTUCKY

CITY           SKY/WX    TMP DP  RH WIND       PRES   REMARKS
PADUCAH        PTCLDY    39  25  57 W8G22     29.80R WCI  33
HENDERSON      CLOUDY    36  30  80 W10       29.78S WCI  28
OWENSBORO      RAIN      38  36  92 NW21G28   29.77R FOG     WCI  28
HOPKINSVILLE   PTCLDY    35  27  72 SW9       29.76F WCI  28
BOWLING GREEN  PTCLDY    37  35  92 SW3       29.77F
GLASGOW        NOT AVBL
$$

KYZ024-025-028>034-038-045-046-053-081200-
NORTH CENTRAL KENTUCKY

CITY           SKY/WX    TMP DP  RH WIND       PRES   REMARKS
LOUISVILLE/SDF MOCLDY    36  33  89 S6        29.73S WCI  31
LOUISVILLE/LOU MOCLDY    35  33  92 SW3       29.74R
FORT KNOX      PTCLDY    33  31  94 S3        29.71F
$$

KYZ035>037-039>044-047>052-055>060-089>105-081200-
NORTHEAST KENTUCKY

CITY           SKY/WX    TMP DP  RH WIND       PRES   REMARKS
LEXINGTON      LGT RAIN  36  34  92 SW6       29.72S WCI  31
COVINGTON      CLOUDY    37  34  89 S6        29.68S WCI  32
FRANKFORT      LGT RAIN  37  34  89 W8        29.71S WCI  31
$$

KYZ054-064>069-076>088-106>120-081200-
SOUTHEAST KENTUCKY

CITY           SKY/WX    TMP DP  RH WIND       PRES   REMARKS
JACKSON        CLOUDY    41  22  46 SW5       29.69F
LONDON         LGT RAIN  38  30  73 W14       29.74R WCI  30
SOMERSET       NOT AVBL
MIDDLESBORO    NOT AVBL
MONTICELLO     LGT RAIN  38  35  89 W16G25    29.79S WCI  29
$$





USA.gov is the U.S. government's official web portal to all federal, state and local government web resources and services.